This demonstration page uses our WeatherBlox Daily Observations layout. Learn more.

Left ArrowRight Arrow

39.51506, -84.39828

Hourly Observations for September 17, 2015

Temp ( °F °C ) Dew Point ( °F °C ) Humidity (%) Winds ( mph kmh ) Pressure ( in mb ) Visibility ( mi km ) Precip ( " mm )
12:15 am 00:15 Clear 60 15.3 56 13.5 89 89 Calm 30.21 1023 10 16.0934 0 0
12:35 am 00:35 Clear 60 15.3 56 13.3 88 88 Calm 30.21 1023 10 16.0934 0 0
12:55 am 00:55 Clear 58 14.2 54 12.2 88 88 Calm 30.21 1023 10 16.0934 0 0
1:15 am 01:15 Clear 58 14.3 55 12.5 89 89 Calm 30.21 1023 10 16.0934 0 0
1:35 am 01:35 Clear 57 13.8 54 12 89 89 Calm 30.21 1023 10 16.0934 0 0
1:55 am 01:55 Clear 57 13.8 54 12 89 89 Calm 30.21 1023 10 16.0934 0 0
2:15 am 02:15 Clear with Mist and Fog 57 13.8 54 12 89 89 Calm 30.21 1023 4 6.43736 0 0
2:35 am 02:35 Clear 57 13.8 54 12.1 90 90 N 3 6 30.21 1023 10 16.0934 0 0
2:55 am 02:55 Clear 57 13.8 54 12.1 90 90 Calm 30.21 1023 10 16.0934 0 0
3:15 am 03:15 Clear 57 13.8 54 12.2 90 90 Calm 30.21 1023 7 11.26538 0 0
3:35 am 03:35 Clear 57 13.8 54 12.2 90 90 Calm 30.21 1023 7 11.26538 0 0
3:55 am 03:55 Clear with Mist and Fog 57 13.8 54 12.2 90 90 Calm 30.21 1023 2 3.21868 0 0
4:15 am 04:15 Clear with Mist and Fog 55 12.5 51 10.8 89 89 Calm 30.21 1023 5 8.0467 0 0
4:35 am 04:35 Clear 55 12.5 51 10.8 89 89 Calm 30.21 1023 10 16.0934 0 0
4:55 am 04:55 Clear 55 12.5 51 10.8 89 89 Calm 30.21 1023 7 11.26538 0 0
5:15 am 05:15 Clear 55 12.5 52 11 91 91 Calm 30.21 1023 7 11.26538 0 0
5:35 am 05:35 Clear 55 12.5 52 11 91 91 Calm 30.21 1023 7 11.26538 0 0
5:55 am 05:55 Mostly Cloudy with Mist and Fog 55 12.5 51 10.8 89 89 Calm 30.21 1023 1.75 2.816345 0 0
6:15 am 06:15 Clear with Mist and Fog 55 12.5 51 10.8 89 89 Calm 30.21 1023 5 8.0467 0 0
6:35 am 06:35 Clear with Mist and Fog 55 12.5 51 10.8 89 89 Calm 30.21 1023 5 8.0467 0 0
6:55 am 06:55 Clear with Mist and Fog 55 12.5 52 11 91 91 Calm 30.21 1023 2 3.21868 0 0
7:15 am 07:15 Clear with Mist and Fog 55 12.5 52 11 91 91 Calm 30.21 1023 5 8.0467 0 0
7:35 am 07:35 Mostly Cloudy with Mist and Fog 55 12.5 52 11 91 91 Calm 30.21 1023 1 1.60934 0 0
7:55 am 07:55 Sunny with Mist and Fog 55 12.5 52 11 91 91 Calm 30.21 1023 5 8.0467 0 0
8:15 am 08:15 Sunny 55 12.5 52 11 91 91 Calm 30.21 1023 7 11.26538 0 0
8:35 am 08:35 Sunny 57 13.8 55 12.5 92 92 Calm 30.21 1023 10 16.0934 0 0
8:55 am 08:55 Sunny 60 15.3 57 13.8 91 91 Calm 30.21 1023 10 16.0934 0 0
9:15 am 09:15 Sunny 61 16 57 14 88 88 Calm 30.21 1023 10 16.0934 0 0
9:35 am 09:35 Sunny 63 17.2 57 14.1 82 82 Calm 30.21 1023 10 16.0934 0 0
9:55 am 09:55 Sunny 67 19.5 59 15.1 76 76 Calm 30.18 1022 10 16.0934 0 0
10:15 am 10:15 Sunny 69 20.8 60 15.3 71 71 Calm 30.18 1022 10 16.0934 0 0
10:35 am 10:35 Sunny 72 22.3 60 15.7 66 66 Calm 30.18 1022 10 16.0934 0 0
10:55 am 10:55 Sunny 74 23.6 59 14.9 58 58 Calm 30.18 1022 10 16.0934 0 0
11:15 am 11:15 Sunny 74 23.6 57 14 55 55 WSW 6 9 30.18 1022 10 16.0934 0 0
11:35 am 11:35 Sunny 77 25 58 14.5 52 52 SSW 6 9 30.15 1021 10 16.0934 0 0
11:55 am 11:55 Sunny 77 25.1 55 12.8 46 46 SW 6 9 30.15 1021 10 16.0934 0 0
12:15 pm 12:15 Sunny 80 26.5 55 12.6 42 42 SW 5 7 30.15 1021 10 16.0934 0 0
12:35 pm 12:35 Sunny 80 26.5 51 10.6 37 37 S 10 17 30.15 1021 10 16.0934 0 0
12:55 pm 12:55 Sunny 80 26.5 52 11.2 38 38 SW 7 11 30.15 1021 10 16.0934 0 0
1:15 pm 13:15 Partly Cloudy 80 26.5 53 11.6 39 39 SSW 7 11 30.12 1020 10 16.0934 0 0
1:35 pm 13:35 Partly Cloudy 81 27.2 53 11.4 37 37 WSW 8 13 30.12 1020 10 16.0934 0 0
1:55 pm 13:55 Partly Cloudy 80 26.8 53 11.4 38 38 SSW 7 11 30.12 1020 10 16.0934 0 0
2:15 pm 14:15 Sunny 81 27.1 52 11.3 37 37 WSW 7 11 30.12 1020 10 16.0934 0 0
2:35 pm 14:35 Sunny 81 27.3 51 10.5 35 35 S 6 9 30.09 1019 10 16.0934 0 0
2:55 pm 14:55 Sunny 82 27.6 51 10.5 34 34 S 6 9 30.09 1019 10 16.0934 0 0
3:15 pm 15:15 Sunny 82 28 51 10.7 34 34 SW 7 11 30.06 1018 10 16.0934 0 0
3:35 pm 15:35 Sunny 82 28 51 10.8 34 34 SSE 8 13 30.06 1018 10 16.0934 0 0
3:55 pm 15:55 Sunny 82 28 51 10.6 34 34 WSW 5 7 30.06 1018 10 16.0934 0 0
4:15 pm 16:15 Sunny 82 28 51 10.5 34 34 SW 7 11 30.06 1018 10 16.0934 0 0
4:35 pm 16:35 Sunny 82 28 50 9.8 32 32 SW 7 11 30.06 1018 10 16.0934 0 0
4:55 pm 16:55 Sunny 82 28 51 10.5 34 34 SSW 9 15 30.06 1018 10 16.0934 0 0
5:15 pm 17:15 Sunny 82 28 50 10.1 33 33 S 6 9 30.03 1017 10 16.0934 0 0
5:35 pm 17:35 Sunny 82 28 50 9.9 32 32 SSW 5 7 30.03 1017 10 16.0934 0 0
5:55 pm 17:55 Sunny 81 27.3 51 10.7 35 35 S 8 13 30.03 1017 10 16.0934 0 0
6:15 pm 18:15 Sunny 81 27.3 51 10.7 35 35 S 7 11 30.03 1017 10 16.0934 0 0
6:35 pm 18:35 Sunny 81 27.2 51 10.7 36 36 S 5 7 30.03 1017 10 16.0934 0 0
6:55 pm 18:55 Sunny 80 26.5 53 11.5 39 39 WSW 3 6 30.03 1017 10 16.0934 0 0
7:15 pm 19:15 Sunny 80 26.5 52 10.9 38 38 SW 7 11 30.03 1017 10 16.0934 0 0
7:35 pm 19:35 Sunny 75 23.9 55 13 51 51 WSW 5 7 30.03 1017 10 16.0934 0 0
7:55 pm 19:55 Clear 69 20.8 59 14.9 69 69 Calm 30 1016 10 16.0934 0 0
8:15 pm 20:15 Clear 69 20.8 61 16.3 76 76 Calm 30.03 1017 10 16.0934 0 0
8:35 pm 20:35 Clear 64 18 59 15.1 83 83 Calm 30.03 1017 10 16.0934 0 0
8:55 pm 20:55 Clear 64 18 59 15.2 84 84 Calm 30.03 1017 10 16.0934 0 0
9:15 pm 21:15 Clear 64 18 59 15.2 84 84 Calm 30.03 1017 10 16.0934 0 0
9:35 pm 21:35 Clear 63 17.1 58 14.5 85 85 Calm 30.03 1017 10 16.0934 0 0
9:55 pm 21:55 Clear 61 16.3 57 13.9 86 86 Calm 30.03 1017 10 16.0934 0 0
10:15 pm 22:15 Clear 61 16 56 13.5 85 85 Calm 30.03 1017 10 16.0934 0 0
10:35 pm 22:35 Clear 60 15.8 56 13.5 86 86 Calm 30.03 1017 10 16.0934 0 0
10:55 pm 22:55 Clear 60 15.3 56 13.2 87 87 Calm 30.06 1018 10 16.0934 0 0
11:15 pm 23:15 Clear 60 15.3 56 13.2 87 87 Calm 30.03 1017 10 16.0934 0 0
11:35 pm 23:35 Clear 60 15.3 56 13.2 87 87 Calm 30.03 1017 10 16.0934 0 0
11:55 pm 23:55 Clear 59 15 55 12.9 87 87 Calm 30.03 1017 10 16.0934 0 0

Powered by AerisWeather